Weather in Sharchino

Russia / Novosibirsk Oblast     54°16′07″N   82°32′25″E
temp.,
°C
wind,
m/s
gust,
m/s
humid.,
%
clouds,
%
prec.,
mm/h
press.,
hPa
HPBL,
m
5 august, thu
thu501:00+15e3386100 0.6 100767
04:00+15e118843 0.2 100711
07:00+14ne119454 1.6 100751
10:00+17nne338333 2.1 1007353
13:00+20nne337195 5.8 1006697
16:00+20n236970 4.9 1006635
19:00+20nnw23785 9.6 1006194
22:00+15nnw3794100 0.8 1007133
6 august, fri
fri601:00+15n2495100 0.8 1007118
04:00+14nnw3696100 0.0 1007171
07:00+14nw2497100 0.2 1008140
10:00+15w3697100 1.9 1008267
13:00+15wsw4797100 10.4 1009351
16:00+19wnw458072 0.8 1008864
19:00+20nnw238024 3.5 1008577
22:00+16ne22901 0.8 100911
7 august, sat
sat701:00+15ene229346 0.8 100916
04:00+14e2295100 0.0 100934
07:00+14ene22955 0.0 101148
10:00+19e357890 0.0 1011534
13:00+23ese3459100 0.0 10111358
16:00+25se2451100 0.0 10111807
19:00+23e126270 0.0 1011122
22:00+18e11755 0.0 101111
8 august, sun
sun801:00+17e128013 0.0 101111
04:00+16se229020 0.0 101120
07:00+16se22865 0.0 101127
10:00+23se23635 0.0 1011448
13:00+26sse33505 0.0 10101446
16:00+27sse234329 0.0 10092048
19:00+24se1154100 0.0 100813
22:00+20wnw4677100 1.1 1009167
9 august, mon
mon901:00+17nne4698100 4.7 1009159
04:00+16wnw1199100 3.2 100928
07:00+16wnw369958 3.3 1010236
10:00+18nw4581100 0.0 1010568
13:00+21wnw45530 0.0 10101541
16:00+23wnw454035 0.0 10102358
19:00+22n34502 0.0 1009465
22:00+15ne3367100 0.0 101038